This demonstration page uses our WeatherBlox Daily Observations layout. Learn more.

Left ArrowRight Arrow

38.80484, -77.04692

Hourly Observations for August 25, 2022

Temp ( °F °C ) Dew Point ( °F °C ) Humidity (%) Winds ( mph kmh ) Pressure ( in mb ) Visibility ( mi km ) Precip ( " mm )
12:52 am 00:52 Partly Cloudy 77 25 69 20.6 77 77 Calm 30.06 1018 10 16 0.00 0.00
1:52 am 01:52 Partly Cloudy 74 23.3 67 19.4 79 79 NNW 5 7 30.07 1018 10 16 0.00 0.00
2:52 am 02:52 Partly Cloudy 75 23.9 65 18.3 71 71 N 3 6 30.06 1018 10 16 0.00 0.00
3:52 am 03:52 Mostly Cloudy 73 22.8 65 18.3 76 76 SW 3 6 30.06 1018 10 16 0.00 0.00
4:52 am 04:52 Partly Cloudy 73 22.8 64 17.8 73 73 WSW 3 6 30.05 1018 10 16 0.00 0.00
5:52 am 05:52 Mostly Clear 73 22.8 64 17.8 73 73 Calm 30.06 1018 10 16 0.00 0.00
6:52 am 06:52 Mostly Sunny 68 20 65 18.3 90 90 SW 5 7 30.07 1018 10 16 0.00 0.00
7:52 am 07:52 Partly Cloudy 76 24.4 68 20 77 77 Calm 30.07 1018 10 16 0.00 0.00
8:52 am 08:52 Mostly Cloudy 79 26.1 68 20 69 69 ESE 3 6 30.08 1019 10 16 0.00 0.00
9:52 am 09:52 Mostly Cloudy 81 27.2 68 20 65 65 Calm 30.08 1019 10 16 0.00 0.00
10:52 am 10:52 Mostly Cloudy 84 28.9 65 18.3 53 53 Calm 30.09 1019 10 16 0.00 0.00
11:52 am 11:52 Mostly Cloudy 86 30 68 20 55 55 SE 6 9 30.08 1019 10 16 0.00 0.00
12:52 pm 12:52 Mostly Cloudy 88 31.1 68 20 52 52 S 7 11 30.06 1018 10 16 0.00 0.00
1:52 pm 13:52 Mostly Cloudy 89 31.7 69 20.6 52 52 S 9 15 30.05 1018 10 16 0.00 0.00
2:52 pm 14:52 Mostly Cloudy 88 31.1 68 20 52 52 S 15 24 30.03 1017 10 16 0.00 0.00
3:52 pm 15:52 Mostly Cloudy 84 28.9 68 20 59 59 N 7 11 30.02 1017 10 16 0.00 0.00
4:52 pm 16:52 Mostly Cloudy 87 30.6 68 20 53 53 S 10 17 30.02 1017 10 16 0.00 0.00
5:52 pm 17:52 Mostly Cloudy 86 30 69 20.6 57 57 S 10 17 30.01 1016 10 16 0.00 0.00
6:52 pm 18:52 Mostly Cloudy 84 28.9 70 21.1 63 63 SE 6 9 30.01 1016 10 16 0.00 0.00
7:52 pm 19:52 Mostly Cloudy 82 27.8 71 21.7 69 69 SE 6 9 30.01 1016 10 16 0.00 0.00
8:52 pm 20:52 Mostly Cloudy 81 27.2 71 21.7 72 72 SSE 6 9 30.02 1017 10 16 0.00 0.00
9:52 pm 21:52 Mostly Cloudy 81 27.2 71 21.7 72 72 S 8 13 30.03 1017 10 16 0.00 0.00
10:52 pm 22:52 Mostly Cloudy 80 26.7 72 22.2 76 76 SSW 10 17 30.03 1017 10 16 0.00 0.00
11:52 pm 23:52 Partly Cloudy 79 26.1 71 21.7 77 77 SSW 12 19 30.03 1017 10 16 0.00 0.00

Powered by AerisWeather